QPF
0.00 0.00 0.00 0.00 0.00 0.00 0.00 0.00 0.00 0.00 0.00 0.00 0.00 0.00 0.00 0.00 0.00 0.00 0.00 0.00 0.00 0.00 0.00 0.00 0.00 0.00 0.00 0.00 0.00 0.00 0.00 0.00 0.00 0.02 0.02 0.03 0.03 0.01 0.01 0.01 0.01 0.01 0.02 0.03
0.00 0.00 0.00 0.00 0.00 0.00 0.00 0.00 0.00 0.00 0.00 0.00 0.00 0.00 0.00 0.00 0.00 0.00 0.00 0.00 0.00 0.00 0.00 0.00 0.00 0.00 0.00 0.00 0.00 0.00 0.00 0.00 0.00 0.00 0.01 0.01 0.01 0.01 0.01 0.01 0.02 0.01 0.01 0.02
0.00 0.00 0.00 0.00 0.00 0.00 0.00 0.00 0.00 0.00 0.00 0.00 0.00 0.00 0.00 0.00 0.00 0.00 0.00 0.00 0.00 0.00 0.00 0.00 0.00 0.00 0.00 0.00 0.00 0.00 0.00 0.00 0.00 0.00 0.00 0.01 0.01 0.01 0.01 0.02 0.03 0.02 0.01 0.01
0.00 0.00 0.00 0.00 0.00 0.00 0.00 0.00 0.00 0.00 0.01 0.00 0.00 0.01 0.00 0.00 0.00 0.00 0.00 0.00 0.00 0.00 0.00 0.00 0.00 0.00 0.00 0.00 0.00 0.00 0.00 0.00 0.00 0.00 0.00 0.00 0.00 0.01 0.01 0.02 0.03 0.02 0.02 0.02
0.01 0.00 0.00 0.00 0.00 0.00 0.00 0.00 0.00 0.00 0.00 0.00 0.00 0.01 0.00 0.00 0.00 0.00 0.00 0.00 0.00 0.00 0.00 0.00 0.00 0.00 0.00 0.00 0.00 0.00 0.00 0.00 0.00 0.00 0.00 0.00 0.01 0.01 0.01 0.03 0.03 0.02 0.03 0.03
0.01 0.01 0.01 0.00 0.00 0.00 0.00 0.00 0.00 0.00 0.00 0.01 0.00 0.01 0.00 0.00 0.00 0.00 0.00 0.00 0.00 0.00 0.00 0.00 0.00 0.00 0.00 0.00 0.00 0.00 0.01 0.00 0.00 0.00 0.00 0.01 0.01 0.01 0.02 0.04 0.04 0.03 0.02 0.02
0.01 0.01 0.01 0.00 0.00 0.00 0.00 0.00 0.01 0.01 0.01 0.00 0.00 0.00 0.00 0.00 0.00 0.00 0.00 0.00 0.00 0.00 0.00 0.00 0.00 0.00 0.00 0.00 0.00 0.00 0.00 0.00 0.00 0.00 0.01 0.02 0.02 0.02 0.02 0.04 0.04 0.04 0.03 0.02
0.01 0.01 0.01 0.01 0.01 0.01 0.01 0.01 0.01 0.01 0.00 0.00 0.00 0.00 0.00 0.00 0.00 0.00 0.00 0.00 0.00 0.00 0.00 0.00 0.00 0.00 0.00 0.00 0.00 0.00 0.01 0.01 0.01 0.02 0.03 0.04 0.05 0.06 0.06 0.07 0.07 0.05 0.04 0.02
0.01 0.01 0.01 0.01 0.01 0.01 0.01 0.01 0.01 0.01 0.01 0.00 0.00 0.00 0.00 0.00 0.00 0.00 0.00 0.00 0.00 0.00 0.00 0.00 0.00 0.00 0.00 0.00 0.01 0.01 0.02 0.01 0.01 0.02 0.04 0.05 0.06 0.10 0.11 0.08 0.08 0.07 0.06 0.04
0.01 0.01 0.00 0.00 0.01 0.01 0.01 0.01 0.02 0.02 0.01 0.00 0.00 0.00 0.00 0.00 0.00 0.00 0.00 0.00 0.00 0.00 0.00 0.00 0.00 0.00 0.00 0.00 0.02 0.03 0.02 0.03 0.02 0.02 0.02 0.03 0.04 0.08 0.10 0.08 0.08 0.06 0.06 0.07
0.01 0.01 0.01 0.00 0.01 0.01 0.01 0.01 0.02 0.02 0.01 0.01 0.00 0.00 0.00 0.00 0.00 0.00 0.00 0.00 0.00 0.00 0.00 0.00 0.00 0.00 0.00 0.00 0.01 0.03 0.01 0.02 0.05 0.06 0.04 0.04 0.03 0.05 0.08 0.08 0.07 0.05 0.06 0.07
0.03 0.03 0.02 0.01 0.00 0.00 0.01 0.01 0.01 0.01 0.01 0.01 0.01 0.00 0.00 0.00 0.00 0.00 0.00 0.00 0.00 0.00 0.00 0.00 0.00 0.00 0.00 0.00 0.01 0.02 0.01 0.01 0.04 0.07 0.07 0.08 0.05 0.05 0.08 0.08 0.08 0.05 0.04 0.04
0.03 0.04 0.03 0.02 0.01 0.01 0.02 0.01 0.01 0.01 0.01 0.01 0.00 0.00 0.00 0.00 0.00 0.00 0.00 0.00 0.00 0.00 0.00 0.00 0.00 0.00 0.00 0.00 0.00 0.01 0.01 0.01 0.02 0.03 0.03 0.05 0.07 0.06 0.08 0.09 0.09 0.07 0.05 0.04
0.04 0.05 0.04 0.03 0.02 0.02 0.03 0.03 0.02 0.02 0.02 0.01 0.00 0.00 0.00 0.00 0.00 0.00 0.00 0.00 0.00 0.00 0.00 0.00 0.00 0.00 0.00 0.00 0.00 0.00 0.01 0.01 0.01 0.03 0.04 0.02 0.04 0.06 0.07 0.09 0.10 0.08 0.06 0.05
0.05 0.04 0.02 0.02 0.01 0.01 0.01 0.01 0.01 0.02 0.02 0.01 0.00 0.00 0.00 0.00 0.00 0.00 0.00 0.00 0.00 0.00 0.00 0.00 0.00 0.00 0.00 0.00 0.00 0.00 0.00 0.00 0.01 0.02 0.03 0.03 0.03 0.06 0.09 0.09 0.09 0.08 0.08 0.07
0.05 0.04 0.02 0.01 0.00 0.01 0.01 0.01 0.00 0.01 0.01 0.01 0.00 0.00 0.00 0.00 0.00 0.00 0.00 0.00 0.00 0.00 0.00 0.00 0.00 0.00 0.00 0.00 0.00 0.00 0.00 0.00 0.00 0.01 0.01 0.03 0.03 0.06 0.08 0.10 0.09 0.08 0.08 0.08
0.04 0.04 0.03 0.02 0.00 0.02 0.02 0.01 0.00 0.00 0.00 0.00 0.01 0.00 0.00 0.00 0.00 0.00 0.00 0.00 0.00 0.00 0.00 0.00 0.00 0.00 0.01 0.01 0.01 0.01 0.01 0.00 0.00 0.00 0.01 0.02 0.03 0.04 0.05 0.07 0.09 0.09 0.08 0.07
0.03 0.03 0.04 0.03 0.01 0.03 0.01 0.00 0.00 0.00 0.00 0.00 0.00 0.01 0.01 0.01 0.01 0.00 0.00 0.00 0.00 0.00 0.00 0.00 0.00 0.01 0.01 0.01 0.01 0.01 0.01 0.01 0.00 0.01 0.01 0.02 0.02 0.02 0.03 0.04 0.05 0.07 0.08 0.07
0.02 0.04 0.06 0.05 0.03 0.01 0.00 0.00 0.00 0.00 0.00 0.01 0.00 0.00 0.00 0.00 0.01 0.00 0.00 0.00 0.00 0.00 0.00 0.00 0.00 0.01 0.01 0.01 0.01 0.01 0.01 0.01 0.01 0.01 0.02 0.03 0.03 0.02 0.02 0.03 0.04 0.05 0.05 0.05
0.03 0.05 0.08 0.07 0.05 0.02 0.00 0.00 0.00 0.00 0.01 0.01 0.00 0.00 0.00 0.00 0.01 0.00 0.00 0.00 0.00 0.00 0.00 0.00 0.00 0.01 0.01 0.01 0.01 0.01 0.01 0.01 0.01 0.01 0.02 0.03 0.03 0.02 0.02 0.02 0.04 0.04 0.05 0.06
0.04 0.07 0.07 0.04 0.04 0.01 0.00 0.00 0.00 0.00 0.00 0.00 0.00 0.00 0.00 0.00 0.00 0.00 0.00 0.00 0.00 0.00 0.00 0.00 0.00 0.01 0.02 0.01 0.01 0.01 0.01 0.01 0.00 0.01 0.02 0.02 0.02 0.02 0.02 0.03 0.04 0.04 0.05 0.06
0.01 0.02 0.02 0.02 0.04 0.01 0.00 0.00 0.00 0.00 0.00 0.00 0.00 0.00 0.00 0.00 0.00 0.00 0.00 0.00 0.00 0.00 0.00 0.00 0.00 0.01 0.02 0.02 0.01 0.01 0.01 0.01 0.01 0.01 0.01 0.01 0.01 0.02 0.02 0.03 0.04 0.05 0.06 0.06
0.01 0.01 0.02 0.02 0.01 0.01 0.00 0.00 0.00 0.00 0.00 0.00 0.00 0.00 0.00 0.00 0.00 0.00 0.00 0.00 0.00 0.00 0.00 0.00 0.00 0.01 0.02 0.02 0.02 0.01 0.01 0.01 0.02 0.01 0.01 0.01 0.01 0.02 0.03 0.04 0.05 0.06 0.05 0.05
0.02 0.01 0.02 0.01 0.01 0.00 0.00 0.00 0.00 0.00 0.00 0.00 0.00 0.00 0.00 0.00 0.00 0.00 0.00 0.00 0.00 0.00 0.00 0.00 0.00 0.01 0.02 0.03 0.02 0.02 0.02 0.02 0.03 0.03 0.02 0.02 0.02 0.02 0.04 0.04 0.05 0.06 0.07 0.06
0.01 0.01 0.01 0.01 0.01 0.01 0.00 0.00 0.00 0.00 0.00 0.00 0.00 0.00 0.00 0.00 0.00 0.00 0.00 0.00 0.00 0.00 0.00 0.00 0.00 0.00 0.01 0.03 0.03 0.02 0.02 0.03 0.04 0.04 0.03 0.03 0.02 0.03 0.04 0.05 0.05 0.06 0.07 0.08
0.00 0.00 0.00 0.01 0.01 0.01 0.01 0.01 0.00 0.00 0.00 0.00 0.00 0.00 0.00 0.00 0.00 0.00 0.00 0.00 0.00 0.00 0.00 0.00 0.00 0.00 0.01 0.03 0.03 0.03 0.03 0.03 0.04 0.04 0.04 0.03 0.03 0.03 0.04 0.05 0.05 0.05 0.07 0.08
MSLP
1015.00 1015.57 1016.08 1016.50 1016.84 1017.10 1017.27 1017.37 1017.42 1017.43 1017.40 1017.35 1017.30 1017.24 1017.21 1017.19 1017.19 1017.22 1017.24 1017.26 1017.26 1017.22 1017.12 1016.98 1016.79 1016.57 1016.32 1016.05 1015.76 1015.46 1015.14 1014.79 1014.41 1013.99 1013.53 1013.04 1012.52 1012.01 1011.50 1011.02 1010.56 1010.15 1009.77 1009.44
1015.54 1016.08 1016.54 1016.92 1017.22 1017.45 1017.61 1017.72 1017.78 1017.79 1017.77 1017.72 1017.63 1017.54 1017.44 1017.36 1017.31 1017.28 1017.27 1017.26 1017.25 1017.20 1017.09 1016.93 1016.70 1016.43 1016.11 1015.77 1015.42 1015.06 1014.69 1014.31 1013.90 1013.44 1012.94 1012.40 1011.81 1011.19 1010.57 1009.97 1009.41 1008.92 1008.49 1008.14
1016.05 1016.53 1016.94 1017.27 1017.54 1017.76 1017.93 1018.07 1018.16 1018.19 1018.17 1018.09 1017.96 1017.79 1017.62 1017.45 1017.32 1017.24 1017.20 1017.19 1017.18 1017.15 1017.05 1016.89 1016.64 1016.32 1015.95 1015.53 1015.11 1014.68 1014.25 1013.82 1013.36 1012.87 1012.32 1011.70 1011.03 1010.31 1009.58 1008.87 1008.21 1007.64 1007.16 1006.78
1016.54 1016.95 1017.30 1017.59 1017.85 1018.08 1018.30 1018.48 1018.61 1018.67 1018.64 1018.51 1018.30 1018.02 1017.73 1017.45 1017.23 1017.09 1017.03 1017.02 1017.05 1017.05 1017.00 1016.86 1016.61 1016.26 1015.83 1015.34 1014.83 1014.32 1013.81 1013.31 1012.80 1012.24 1011.63 1010.95 1010.20 1009.40 1008.57 1007.76 1007.01 1006.36 1005.83 1005.42
1017.02 1017.36 1017.66 1017.93 1018.20 1018.48 1018.76 1019.01 1019.19 1019.26 1019.20 1019.00 1018.67 1018.26 1017.81 1017.39 1017.06 1016.84 1016.75 1016.77 1016.84 1016.91 1016.92 1016.82 1016.59 1016.22 1015.74 1015.18 1014.57 1013.96 1013.36 1012.77 1012.18 1011.56 1010.88 1010.14 1009.32 1008.45 1007.54 1006.66 1005.84 1005.12 1004.53 1004.08
1017.50 1017.79 1018.05 1018.32 1018.64 1018.99 1019.36 1019.69 1019.93 1020.01 1019.91 1019.61 1019.13 1018.54 1017.90 1017.32 1016.85 1016.55 1016.42 1016.45 1016.57 1016.72 1016.80 1016.76 1016.56 1016.18 1015.65 1015.01 1014.31 1013.58 1012.87 1012.18 1011.49 1010.80 1010.06 1009.27 1008.40 1007.47 1006.52 1005.58 1004.70 1003.92 1003.28 1002.77
1017.98 1018.22 1018.48 1018.79 1019.17 1019.63 1020.11 1020.54 1020.84 1020.93 1020.77 1020.35 1019.71 1018.91 1018.07 1017.28 1016.66 1016.25 1016.08 1016.11 1016.28 1016.50 1016.66 1016.67 1016.50 1016.11 1015.54 1014.82 1014.01 1013.17 1012.33 1011.53 1010.76 1009.99 1009.19 1008.35 1007.44 1006.48 1005.49 1004.51 1003.58 1002.75 1002.03 1001.45
1018.42 1018.65 1018.93 1019.31 1019.80 1020.38 1020.99 1021.52 1021.89 1021.98 1021.76 1021.22 1020.40 1019.39 1018.32 1017.34 1016.55 1016.03 1015.79 1015.81 1016.01 1016.27 1016.49 1016.55 1016.40 1016.00 1015.37 1014.57 1013.66 1012.70 1011.75 1010.84 1009.97 1009.13 1008.28 1007.40 1006.47 1005.49 1004.47 1003.45 1002.47 1001.57 1000.78 1000.10
1018.80 1019.04 1019.38 1019.85 1020.46 1021.18 1021.92 1022.57 1022.99 1023.09 1022.81 1022.14 1021.15 1019.95 1018.68 1017.50 1016.55 1015.90 1015.59 1015.58 1015.78 1016.07 1016.32 1016.40 1016.24 1015.82 1015.14 1014.26 1013.25 1012.19 1011.13 1010.13 1009.18 1008.27 1007.38 1006.46 1005.50 1004.50 1003.44 1002.38 1001.34 1000.36 999.47 998.69
1019.09 1019.38 1019.79 1020.37 1021.11 1021.96 1022.82 1023.56 1024.03 1024.13 1023.79 1023.02 1021.89 1020.52 1019.08 1017.75 1016.65 1015.90 1015.51 1015.45 1015.63 1015.91 1016.15 1016.22 1016.05 1015.58 1014.85 1013.90 1012.81 1011.65 1010.51 1009.43 1008.41 1007.45 1006.51 1005.56 1004.57 1003.53 1002.43 1001.30 1000.18 999.11 998.12 997.22
1019.31 1019.65 1020.14 1020.81 1021.67 1022.62 1023.58 1024.37 1024.87 1024.95 1024.57 1023.72 1022.49 1021.01 1019.46 1018.02 1016.83 1016.00 1015.55 1015.43 1015.56 1015.80 1016.01 1016.04 1015.82 1015.30 1014.51 1013.50 1012.34 1011.13 1009.93 1008.79 1007.72 1006.72 1005.74 1004.75 1003.72 1002.61 1001.45 1000.24 999.03 997.85 996.74 995.74
1019.46 1019.86 1020.41 1021.16 1022.09 1023.10 1024.09 1024.90 1025.38 1025.44 1025.01 1024.11 1022.83 1021.31 1019.72 1018.24 1017.02 1016.15 1015.66 1015.50 1015.58 1015.76 1015.90 1015.87 1015.58 1015.01 1014.17 1013.11 1011.91 1010.66 1009.42 1008.25 1007.16 1006.12 1005.10 1004.06 1002.97 1001.80 1000.55 999.24 997.92 996.62 995.41 994.30
1019.57 1020.02 1020.62 1021.41 1022.34 1023.34 1024.29 1025.05 1025.48 1025.49 1025.02 1024.11 1022.83 1021.33 1019.78 1018.34 1017.16 1016.31 1015.82 1015.64 1015.67 1015.78 1015.84 1015.73 1015.37 1014.74 1013.85 1012.76 1011.54 1010.27 1009.03 1007.85 1006.74 1005.67 1004.62 1003.53 1002.36 1001.11 999.76 998.34 996.91 995.51 994.20 993.02
1019.69 1020.17 1020.78 1021.54 1022.41 1023.32 1024.17 1024.81 1025.14 1025.07 1024.56 1023.66 1022.43 1021.03 1019.59 1018.27 1017.19 1016.43 1015.98 1015.80 1015.80 1015.85 1015.84 1015.64 1015.21 1014.52 1013.59 1012.48 1011.26 1010.00 1008.77 1007.60 1006.48 1005.39 1004.29 1003.14 1001.90 1000.56 999.11 997.60 996.07 994.58 993.19 991.96
1019.84 1020.32 1020.90 1021.57 1022.31 1023.06 1023.73 1024.20 1024.37 1024.20 1023.66 1022.78 1021.66 1020.40 1019.14 1018.01 1017.11 1016.48 1016.12 1015.98 1015.97 1015.97 1015.88 1015.61 1015.11 1014.37 1013.41 1012.30 1011.09 1009.86 1008.65 1007.48 1006.36 1005.25 1004.11 1002.90 1001.58 1000.15 998.62 997.02 995.42 993.87 992.45 991.20
1020.01 1020.47 1020.96 1021.50 1022.06 1022.59 1023.01 1023.26 1023.26 1022.97 1022.39 1021.57 1020.58 1019.51 1018.49 1017.60 1016.91 1016.46 1016.23 1016.15 1016.15 1016.12 1015.98 1015.64 1015.08 1014.30 1013.32 1012.21 1011.02 1009.82 1008.63 1007.48 1006.34 1005.21 1004.02 1002.75 1001.37 999.87 998.27 996.62 994.98 993.41 991.98 990.75
1020.16 1020.57 1020.96 1021.33 1021.66 1021.93 1022.09 1022.09 1021.89 1021.49 1020.89 1020.14 1019.30 1018.46 1017.69 1017.07 1016.64 1016.39 1016.30 1016.31 1016.33 1016.29 1016.10 1015.71 1015.11 1014.30 1013.32 1012.22 1011.05 1009.87 1008.69 1007.54 1006.39 1005.22 1003.98 1002.65 1001.22 999.67 998.04 996.37 994.73 993.18 991.78 990.59
1020.24 1020.58 1020.84 1021.02 1021.12 1021.12 1021.01 1020.78 1020.40 1019.90 1019.30 1018.63 1017.97 1017.35 1016.86 1016.51 1016.33 1016.29 1016.35 1016.44 1016.50 1016.46 1016.24 1015.82 1015.19 1014.36 1013.38 1012.29 1011.15 1009.98 1008.81 1007.64 1006.46 1005.24 1003.95 1002.57 1001.09 999.52 997.88 996.24 994.64 993.15 991.82 990.70
1020.16 1020.42 1020.54 1020.53 1020.41 1020.18 1019.84 1019.40 1018.89 1018.32 1017.74 1017.18 1016.70 1016.32 1016.07 1015.99 1016.03 1016.18 1016.37 1016.56 1016.65 1016.61 1016.38 1015.94 1015.29 1014.47 1013.50 1012.42 1011.29 1010.13 1008.95 1007.75 1006.53 1005.26 1003.91 1002.48 1000.97 999.40 997.79 996.20 994.68 993.28 992.05 991.02
1019.84 1020.00 1020.00 1019.84 1019.53 1019.11 1018.60 1018.03 1017.43 1016.85 1016.32 1015.89 1015.58 1015.42 1015.41 1015.55 1015.79 1016.09 1016.40 1016.64 1016.77 1016.73 1016.50 1016.05 1015.40 1014.59 1013.64 1012.58 1011.47 1010.30 1009.11 1007.88 1006.60 1005.27 1003.87 1002.40 1000.87 999.31 997.76 996.25 994.83 993.55 992.44 991.52
1019.20 1019.28 1019.17 1018.89 1018.47 1017.93 1017.32 1016.68 1016.07 1015.53 1015.10 1014.81 1014.68 1014.72 1014.91 1015.22 1015.62 1016.04 1016.42 1016.71 1016.85 1016.82 1016.58 1016.14 1015.51 1014.72 1013.80 1012.77 1011.67 1010.51 1009.29 1008.02 1006.69 1005.30 1003.85 1002.35 1000.82 999.29 997.81 996.40 995.11 993.97 992.99 992.19
1018.24 1018.24 1018.05 1017.70 1017.21 1016.63 1016.00 1015.38 1014.83 1014.38 1014.08 1013.95 1014.00 1014.21 1014.56 1015.02 1015.52 1016.01 1016.44 1016.74 1016.89 1016.86 1016.63 1016.21 1015.61 1014.85 1013.97 1012.98 1011.90 1010.74 1009.51 1008.20 1006.82 1005.39 1003.90 1002.38 1000.87 999.39 997.99 996.70 995.55 994.55 993.72 993.04
1016.97 1016.91 1016.68 1016.30 1015.81 1015.25 1014.68 1014.15 1013.71 1013.41 1013.27 1013.31 1013.52 1013.89 1014.37 1014.92 1015.49 1016.02 1016.46 1016.76 1016.91 1016.87 1016.65 1016.25 1015.69 1014.99 1014.16 1013.21 1012.16 1011.01 1009.77 1008.44 1007.04 1005.57 1004.06 1002.55 1001.06 999.65 998.35 997.18 996.17 995.32 994.63 994.08
1015.50 1015.38 1015.13 1014.76 1014.32 1013.85 1013.39 1013.01 1012.73 1012.61 1012.65 1012.87 1013.23 1013.73 1014.31 1014.93 1015.53 1016.07 1016.50 1016.79 1016.92 1016.88 1016.68 1016.30 1015.79 1015.13 1014.35 1013.45 1012.44 1011.32 1010.08 1008.75 1007.33 1005.86 1004.36 1002.87 1001.43 1000.10 998.90 997.86 996.99 996.29 995.73 995.31
1013.96 1013.80 1013.54 1013.22 1012.86 1012.51 1012.21 1012.00 1011.92 1011.99 1012.22 1012.60 1013.11 1013.72 1014.37 1015.03 1015.65 1016.18 1016.59 1016.85 1016.96 1016.92 1016.72 1016.37 1015.89 1015.28 1014.56 1013.71 1012.73 1011.64 1010.42 1009.10 1007.70 1006.24 1004.78 1003.34 1001.98 1000.74 999.65 998.74 998.01 997.44 997.02 996.72
1012.52 1012.33 1012.10 1011.83 1011.58 1011.37 1011.23 1011.21 1011.32 1011.58 1011.99 1012.52 1013.15 1013.84 1014.55 1015.24 1015.85 1016.36 1016.74 1016.98 1017.07 1017.01 1016.81 1016.48 1016.03 1015.45 1014.76 1013.95 1013.01 1011.95 1010.76 1009.47 1008.11 1006.70 1005.29 1003.93 1002.66 1001.53 1000.57 999.79 999.19 998.75 998.45 998.26
Thickness
5595 5584 5584 5590 5592 5598 5597 5597 5598 5602 5606 5604 5603 5611 5620 5622 5621 5620 5618 5618 5619 5621 5621 5619 5617 5614 5611 5608 5605 5602 5600 5598 5595 5592 5589 5587 5585 5584 5583 5582 5580 5579 5578 5578
5579 5579 5589 5591 5591 5591 5591 5589 5588 5592 5596 5597 5596 5603 5615 5619 5620 5620 5618 5615 5615 5614 5612 5610 5609 5606 5602 5599 5596 5594 5592 5589 5586 5583 5580 5577 5575 5573 5572 5570 5569 5567 5565 5565
5577 5583 5589 5587 5584 5583 5581 5579 5581 5582 5582 5585 5585 5598 5611 5618 5619 5618 5616 5614 5612 5611 5607 5604 5600 5597 5593 5590 5588 5587 5583 5581 5578 5575 5571 5568 5564 5562 5560 5558 5557 5555 5553 5551
5568 5577 5581 5579 5577 5576 5572 5577 5576 5574 5565 5560 5567 5572 5600 5606 5609 5612 5609 5605 5603 5603 5600 5597 5594 5589 5586 5583 5581 5578 5575 5572 5569 5566 5561 5557 5553 5551 5549 5547 5545 5543 5540 5538
5562 5569 5571 5571 5572 5570 5566 5569 5566 5562 5551 5543 5550 5548 5583 5594 5600 5604 5601 5598 5596 5595 5593 5590 5587 5583 5580 5576 5572 5569 5566 5563 5560 5556 5552 5547 5543 5540 5538 5535 5532 5530 5528 5527
5554 5561 5563 5564 5565 5564 5558 5553 5545 5531 5527 5537 5547 5540 5569 5581 5596 5600 5597 5591 5589 5586 5584 5581 5578 5574 5570 5566 5562 5559 5556 5553 5550 5546 5541 5537 5532 5529 5525 5523 5520 5518 5517 5516
5543 5548 5552 5554 5551 5549 5545 5534 5527 5529 5518 5534 5544 5538 5562 5585 5590 5593 5591 5584 5580 5576 5573 5569 5566 5563 5560 5557 5553 5550 5546 5543 5539 5535 5531 5526 5522 5517 5513 5510 5508 5506 5505 5504
5524 5531 5538 5541 5541 5536 5532 5532 5527 5531 5526 5530 5534 5537 5564 5581 5584 5584 5583 5578 5572 5566 5562 5560 5558 5555 5552 5548 5544 5540 5536 5533 5530 5525 5521 5517 5512 5507 5503 5500 5497 5495 5494 5493
5515 5521 5527 5530 5533 5530 5520 5514 5518 5502 5497 5505 5518 5530 5553 5574 5574 5573 5569 5565 5560 5556 5554 5551 5548 5545 5542 5539 5535 5530 5527 5523 5520 5515 5511 5507 5502 5498 5494 5491 5488 5485 5484 5483
5511 5505 5513 5515 5519 5518 5515 5507 5496 5493 5497 5506 5513 5521 5541 5560 5561 5559 5555 5552 5549 5546 5542 5540 5537 5535 5532 5528 5525 5521 5516 5513 5510 5506 5501 5498 5493 5489 5485 5482 5479 5477 5475 5474
5502 5493 5491 5498 5501 5500 5500 5498 5492 5481 5480 5488 5499 5525 5544 5547 5549 5546 5544 5542 5539 5535 5532 5529 5527 5524 5521 5517 5514 5510 5506 5502 5499 5495 5492 5488 5485 5481 5477 5474 5471 5469 5468 5466
5486 5477 5473 5480 5487 5490 5490 5489 5481 5483 5473 5465 5470 5510 5542 5537 5536 5534 5533 5531 5529 5525 5522 5519 5516 5513 5509 5506 5503 5499 5496 5492 5489 5485 5482 5479 5477 5473 5470 5467 5464 5462 5460 5459
5477 5467 5466 5473 5471 5469 5472 5473 5471 5468 5463 5453 5465 5508 5529 5524 5525 5523 5520 5518 5515 5514 5511 5508 5504 5501 5498 5495 5492 5488 5485 5482 5479 5475 5472 5470 5468 5465 5462 5459 5457 5454 5453 5451
5471 5459 5468 5478 5479 5463 5458 5461 5461 5460 5457 5453 5467 5497 5514 5514 5513 5511 5509 5506 5503 5502 5501 5498 5494 5491 5487 5484 5481 5478 5475 5471 5468 5465 5463 5461 5459 5457 5455 5452 5450 5449 5447 5445
5459 5452 5452 5461 5466 5458 5461 5462 5456 5458 5461 5464 5478 5483 5506 5505 5501 5499 5497 5496 5495 5493 5491 5489 5484 5479 5476 5473 5470 5467 5464 5461 5458 5456 5454 5452 5451 5449 5447 5446 5444 5443 5441 5439
5441 5440 5440 5448 5454 5452 5454 5460 5458 5459 5462 5463 5469 5481 5498 5494 5489 5486 5485 5485 5484 5483 5482 5479 5475 5470 5466 5462 5459 5457 5454 5451 5448 5446 5445 5443 5442 5441 5439 5437 5436 5435 5434 5431
5424 5426 5428 5433 5440 5440 5443 5463 5461 5456 5458 5459 5464 5481 5485 5480 5479 5479 5478 5476 5474 5473 5471 5468 5465 5460 5456 5452 5449 5446 5444 5441 5439 5437 5436 5434 5433 5432 5430 5428 5427 5426 5425 5424
5415 5416 5415 5418 5422 5429 5463 5470 5466 5461 5463 5461 5466 5472 5473 5473 5472 5469 5468 5466 5465 5464 5462 5458 5454 5450 5446 5442 5439 5436 5433 5431 5429 5428 5427 5425 5423 5422 5422 5420 5418 5418 5417 5416
5416 5410 5405 5406 5408 5421 5448 5459 5455 5448 5453 5458 5458 5463 5464 5462 5457 5458 5462 5459 5457 5454 5451 5446 5443 5439 5435 5432 5429 5426 5424 5422 5420 5418 5417 5416 5414 5413 5413 5411 5410 5409 5409 5409
5404 5402 5400 5399 5404 5416 5447 5454 5449 5447 5442 5454 5451 5452 5451 5446 5439 5449 5454 5450 5446 5444 5440 5436 5432 5428 5424 5422 5419 5416 5414 5412 5411 5410 5408 5407 5406 5405 5404 5403 5402 5402 5401 5402
5394 5393 5395 5393 5395 5412 5437 5438 5439 5432 5439 5447 5444 5443 5440 5434 5437 5441 5440 5437 5435 5431 5428 5425 5421 5417 5414 5412 5409 5406 5404 5402 5402 5401 5401 5399 5398 5397 5397 5396 5396 5395 5395 5396
5390 5385 5383 5385 5390 5409 5429 5422 5422 5427 5433 5435 5434 5433 5431 5429 5429 5428 5426 5424 5422 5419 5417 5414 5410 5407 5404 5401 5398 5397 5395 5394 5393 5393 5393 5392 5391 5391 5391 5390 5390 5389 5389 5389
5386 5393 5391 5394 5408 5417 5415 5416 5418 5418 5419 5422 5421 5422 5421 5419 5417 5416 5413 5411 5408 5407 5404 5402 5398 5397 5394 5391 5388 5386 5386 5384 5384 5384 5384 5384 5384 5384 5383 5383 5384 5384 5383 5384
5377 5384 5381 5383 5396 5403 5404 5405 5408 5409 5409 5411 5412 5410 5408 5407 5406 5402 5400 5397 5396 5394 5393 5390 5388 5386 5385 5382 5379 5377 5376 5375 5375 5375 5375 5376 5377 5378 5378 5377 5378 5378 5378 5379
5377 5375 5374 5377 5387 5390 5397 5398 5400 5399 5399 5399 5399 5399 5398 5396 5394 5391 5387 5386 5384 5384 5381 5379 5377 5375 5374 5372 5370 5369 5367 5366 5366 5367 5368 5369 5370 5370 5372 5372 5372 5373 5374 5374
5369 5370 5371 5379 5384 5383 5389 5392 5391 5389 5389 5388 5387 5386 5386 5384 5381 5379 5376 5374 5373 5372 5370 5368 5367 5365 5364 5362 5361 5360 5359 5358 5358 5360 5362 5363 5364 5365 5366 5367 5370 5371 5371 5374